.
WxDataArchive / Data Records for 2013-01-01
2012-12-31 January 2013 2013-01-02

Data Records for Tuesday, 01 January 2013

Time	Temp	Chill	HIndex	Humid	Dewpt	 Wind 	HiWind	WindDir	Rain 	Barom 
-----	----	-----	------	-----	-----	------	------	-------	-----	----- 
00:00	30.7	30.7	30.7	86	27.0	0	2	248	0.00	30.063 
00:05	30.6	30.6	30.6	86	26.9	0	2	248	0.00	30.063 
00:10	30.6	30.6	30.6	85	26.6	0	2	248	0.00	30.063 
00:15	30.6	30.6	30.6	85	26.6	1	2	248	0.00	30.060 
00:20	30.6	30.6	30.6	85	26.6	0	2	248	0.00	30.060 
00:25	30.6	30.6	30.6	85	26.6	0	1	248	0.00	30.060 
00:30	30.6	30.6	30.6	85	26.6	0	2	248	0.00	30.055 
00:35	30.4	30.4	30.4	85	26.4	0	1	248	0.00	30.055 
00:40	30.4	30.4	30.4	85	26.4	0	1	248	0.00	30.055 
00:45	30.4	30.4	30.4	85	26.4	0	1	248	0.00	30.055 
00:50	30.3	30.3	30.3	84	26.1	0	2	248	0.00	30.055 
00:55	30.3	30.3	30.3	84	26.1	0	1	248	0.00	30.055 
01:00	30.3	30.3	30.3	84	26.1	0	2	248	0.00	30.049 
01:05	30.1	30.1	30.1	84	25.9	1	2	248	0.00	30.049 
01:10	30.1	30.1	30.1	84	25.9	0	2	248	0.00	30.049 
01:15	30.1	30.1	30.1	84	25.9	0	1	248	0.00	30.043 
01:20	30.0	30.0	30.0	84	25.8	0	1	248	0.00	30.043 
01:25	30.0	30.0	30.0	84	25.8	0	3	315	0.00	30.043 
01:30	30.0	30.0	30.0	84	25.8	0	2	315	0.00	30.041 
01:35	29.8	29.8	29.8	84	25.6	0	3	315	0.00	30.041 
01:40	29.8	29.8	29.8	85	25.9	0	2	315	0.00	30.041 
01:45	29.7	29.7	29.7	85	25.8	0	3	315	0.00	30.041 
01:50	29.7	29.7	29.7	85	25.8	0	2	315	0.00	30.041 
01:55	29.7	29.7	29.7	85	25.8	1	2	315	0.00	30.041 
02:00	29.5	29.5	29.5	85	25.6	0	2	315	0.00	30.052 
02:05	29.5	29.5	29.5	85	25.6	0	2	315	0.00	30.052 
02:10	29.5	29.5	29.5	84	25.3	0	2	315	0.00	30.052 
02:15	29.4	29.4	29.4	84	25.2	1	3	315	0.00	30.056 
02:20	29.4	29.4	29.4	84	25.2	0	2	315	0.00	30.056 
02:25	29.3	29.3	29.3	83	24.8	0	2	315	0.00	30.056 
02:30	29.1	29.1	29.1	82	24.3	1	3	315	0.00	30.058 
02:35	29.1	29.1	29.1	81	24.0	0	4	315	0.00	30.058 
02:40	29.1	29.1	29.1	80	23.7	0	2	270	0.00	30.058 
02:45	29.0	29.0	29.0	79	23.3	1	3	270	0.00	30.060 
02:50	29.0	29.0	29.0	79	23.3	0	2	270	0.00	30.060 
02:55	29.0	29.0	29.0	78	23.0	0	1	270	0.00	30.060 
03:00	29.0	29.0	29.0	78	23.0	0	2	270	0.00	30.059 
03:05	28.8	28.8	28.8	77	22.5	0	1	270	0.00	30.059 
03:10	28.8	28.8	28.8	77	22.5	0	2	270	0.00	30.059 
03:15	28.8	28.8	28.8	77	22.5	0	1	270	0.00	30.069 
03:20	28.7	28.7	28.7	77	22.4	0	1	270	0.00	30.069 
03:25	28.7	28.7	28.7	77	22.4	0	1	270	0.00	30.069 
03:30	28.7	28.7	28.7	77	22.4	0	0	---	0.00	30.070 
03:35	28.5	28.5	28.5	78	22.5	0	2	270	0.00	30.070 
03:40	28.5	28.5	28.5	78	22.5	0	1	270	0.00	30.070 
03:45	28.5	28.5	28.5	77	22.2	0	2	270	0.00	30.074 
03:50	28.4	28.4	28.4	77	22.1	0	2	270	0.00	30.074 
03:55	28.4	28.4	28.4	77	22.1	0	1	270	0.00	30.074 
04:00	28.2	28.2	28.2	76	21.6	1	3	270	0.00	30.077 
04:05	28.1	28.1	28.1	75	21.2	0	2	270	0.00	30.077 
04:10	28.1	28.1	28.1	75	21.2	0	2	270	0.00	30.077 
04:15	28.1	28.1	28.1	75	21.2	0	1	270	0.00	30.077 
04:20	27.9	27.9	27.9	75	21.0	0	2	270	0.00	30.077 
04:25	27.9	27.9	27.9	75	21.0	0	1	270	0.00	30.077 
04:30	27.8	27.8	27.8	75	20.9	0	1	270	0.00	30.076 
04:35	27.8	27.8	27.8	75	20.9	0	1	270	0.00	30.076 
04:40	27.8	27.8	27.8	74	20.6	0	2	270	0.00	30.076 
04:45	27.6	27.6	27.6	73	20.1	0	2	270	0.00	30.081 
04:50	27.6	27.6	27.6	73	20.1	0	2	270	0.00	30.081 
04:55	27.6	27.6	27.6	73	20.1	0	1	270	0.00	30.081 
05:00	27.5	27.5	27.5	73	20.0	0	2	270	0.00	30.083 
05:05	27.5	27.5	27.5	73	20.0	0	2	270	0.00	30.083 
05:10	27.5	27.5	27.5	73	20.0	0	1	270	0.00	30.083 
05:15	27.5	27.5	27.5	73	20.0	0	1	270	0.00	30.079 
05:20	27.3	27.3	27.3	73	19.8	0	1	270	0.00	30.079 
05:25	27.3	27.3	27.3	73	19.8	0	2	270	0.00	30.079 
05:30	27.3	27.3	27.3	73	19.8	0	1	270	0.00	30.078 
05:35	27.2	27.2	27.2	73	19.7	0	1	270	0.00	30.078 
05:40	27.2	27.2	27.2	73	19.7	0	1	270	0.00	30.078 
05:45	27.2	27.2	27.2	73	19.7	0	1	270	0.00	30.070 
05:50	27.0	27.0	27.0	73	19.5	0	1	270	0.00	30.070 
05:55	27.0	27.0	27.0	73	19.5	0	2	270	0.00	30.070 
06:00	27.0	27.0	27.0	74	19.8	0	1	270	0.00	30.072 
06:05	27.0	27.0	27.0	74	19.8	0	2	270	0.00	30.072 
06:10	26.9	26.9	26.9	74	19.7	0	2	270	0.00	30.072 
06:15	26.9	26.9	26.9	74	19.7	0	0	---	0.00	30.069 
06:20	26.7	26.7	26.7	75	19.9	0	0	---	0.00	30.069 
06:25	26.7	26.7	26.7	75	19.9	0	0	---	0.00	30.069 
06:30	26.7	26.7	26.7	75	19.9	0	0	---	0.00	30.076 
06:35	26.7	26.7	26.7	76	20.2	0	0	---	0.00	30.076 
06:40	26.6	26.6	26.6	76	20.1	0	0	---	0.00	30.076 
06:45	26.6	26.6	26.6	76	20.1	0	0	---	0.00	30.092 
06:50	26.6	26.6	26.6	76	20.1	0	0	---	0.00	30.092 
06:55	26.3	26.3	26.3	76	19.8	0	0	---	0.00	30.092 
07:00	26.1	26.1	26.1	76	19.6	0	0	---	0.00	30.107 
07:05	25.8	25.8	25.8	76	19.3	0	0	---	0.00	30.107 
07:10	25.6	25.6	25.6	76	19.1	0	0	---	0.00	30.107 
07:15	25.3	25.3	25.3	77	19.1	0	0	---	0.00	30.120 
07:20	25.0	25.0	25.0	77	18.8	0	0	---	0.00	30.120 
07:25	24.7	24.7	24.7	77	18.5	0	0	---	0.00	30.120 
07:30	24.5	24.5	24.5	77	18.3	0	0	---	0.00	30.118 
07:35	24.2	24.2	24.2	77	18.1	0	0	---	0.00	30.118 
07:40	24.1	24.1	24.1	78	18.3	0	0	---	0.00	30.118 
07:45	23.9	23.9	23.9	78	18.1	0	0	---	0.00	30.124 
07:50	23.8	23.8	23.8	78	18.0	0	0	---	0.00	30.124 
07:55	23.6	23.6	23.6	79	18.1	0	0	---	0.00	30.124 
08:00	23.5	23.5	23.5	79	18.0	0	0	---	0.00	30.128 
08:05	23.0	23.0	23.0	79	17.5	0	0	---	0.00	30.128 
08:10	23.0	23.0	23.0	80	17.8	0	0	---	0.00	30.128 
08:15	23.0	23.0	23.0	80	17.8	0	0	---	0.00	30.138 
08:20	22.9	22.9	22.9	81	18.0	0	0	---	0.00	30.138 
08:25	22.9	22.9	22.9	81	18.0	0	0	---	0.00	30.138 
08:30	23.2	23.2	23.2	82	18.5	0	0	---	0.00	30.138 
08:35	23.5	23.5	23.5	82	18.8	0	0	---	0.00	30.138 
08:40	23.8	23.8	23.8	82	19.1	0	0	---	0.00	30.138 
08:45	23.9	23.9	23.9	83	19.5	0	0	---	0.00	30.150 
08:50	24.2	24.2	24.2	82	19.5	0	0	---	0.00	30.150 
08:55	24.4	24.4	24.4	82	19.7	0	0	---	0.00	30.150 
09:00	24.5	24.5	24.5	82	19.8	0	0	---	0.00	30.144 
09:05	24.5	24.5	24.5	82	19.8	0	0	---	0.00	30.144 
09:10	24.7	24.7	24.7	82	20.0	0	0	---	0.00	30.144 
09:15	24.7	24.7	24.7	82	20.0	0	0	---	0.00	30.144 
09:20	24.7	24.7	24.7	82	20.0	0	0	---	0.00	30.144 
09:25	24.8	24.8	24.8	81	19.8	0	0	---	0.00	30.144 
09:30	24.7	24.7	24.7	81	19.7	0	0	---	0.00	30.138 
09:35	24.7	24.7	24.7	81	19.7	0	0	---	0.00	30.138 
09:40	24.7	24.7	24.7	81	19.7	0	0	---	0.00	30.138 
09:45	24.8	24.8	24.8	81	19.8	0	0	---	0.00	30.132 
09:50	25.0	25.0	25.0	81	20.0	0	1	270	0.00	30.132 
09:55	25.3	25.3	25.3	81	20.3	0	0	---	0.00	30.132 
10:00	25.3	25.3	25.3	80	20.0	0	1	112	0.00	30.144 
10:05	25.4	25.4	25.4	80	20.1	0	2	112	0.00	30.144 
10:10	25.7	25.7	25.7	79	20.1	0	2	112	0.00	30.144 
10:15	26.1	26.1	26.1	78	20.2	0	2	45	0.00	30.131 
10:20	26.3	26.3	26.3	77	20.1	0	3	45	0.00	30.131 
10:25	26.3	26.3	26.3	73	18.8	1	3	45	0.00	30.131 
10:30	26.3	26.3	26.3	71	18.2	0	3	22	0.00	30.120 
10:35	26.1	26.1	26.1	70	17.7	1	3	0	0.00	30.120 
10:40	26.3	26.3	26.3	69	17.5	1	4	45	0.00	30.120 
10:45	26.4	26.4	26.4	68	17.3	0	3	45	0.00	30.137 
10:50	26.7	26.7	26.7	68	17.6	0	2	45	0.00	30.137 
10:55	26.9	26.9	26.9	67	17.4	2	4	90	0.00	30.137 
11:00	27.0	27.0	27.0	67	17.5	0	1	90	0.00	30.146 
11:05	27.3	27.3	27.3	66	17.5	0	2	90	0.00	30.146 
11:10	27.6	27.6	27.6	66	17.8	0	1	90	0.00	30.146 
11:15	27.9	27.9	27.9	65	17.7	0	2	90	0.00	30.157 
11:20	27.9	27.9	27.9	65	17.7	0	1	90	0.00	30.157 
11:25	28.1	28.1	28.1	65	17.9	0	2	90	0.00	30.157 
11:30	28.1	28.1	28.1	65	17.9	0	1	90	0.00	30.155 
11:35	28.1	28.1	28.1	65	17.9	0	1	90	0.00	30.155 
11:40	28.2	28.2	28.2	65	18.0	1	4	90	0.00	30.155 
11:45	28.1	28.1	28.1	66	18.2	1	4	90	0.00	30.140 
11:50	28.2	28.2	28.2	65	18.0	0	3	90	0.00	30.140 
11:55	27.9	27.9	27.9	65	17.7	2	4	90	0.00	30.140 
12:00	27.8	27.8	27.8	64	17.2	1	2	90	0.00	30.139 
12:05	27.9	27.9	27.9	65	17.7	1	2	90	0.00	30.139 
12:10	28.1	28.1	28.1	65	17.9	0	2	90	0.00	30.139 
12:15	28.2	28.2	28.2	64	17.6	0	3	90	0.00	30.140 
12:20	28.2	28.2	28.2	63	17.2	0	2	90	0.00	30.140 
12:25	28.2	28.2	28.2	63	17.2	0	3	90	0.00	30.140 
12:30	28.5	28.5	28.5	64	17.9	0	1	90	0.00	30.143 
12:35	28.7	28.7	28.7	63	17.7	0	1	90	0.00	30.143 
12:40	28.7	28.7	28.7	63	17.7	1	3	90	0.00	30.143 
12:45	28.4	28.4	28.4	62	17.1	1	4	90	0.00	30.140 
12:50	28.2	28.2	28.2	63	17.2	0	2	90	0.00	30.140 
12:55	28.1	28.1	28.1	62	16.8	1	4	90	0.00	30.140 
13:00	28.1	28.1	28.1	63	17.2	0	1	90	0.00	30.129 
13:05	28.4	28.4	28.4	64	17.8	0	2	90	0.00	30.129 
13:10	28.5	28.5	28.5	63	17.5	0	2	90	0.00	30.129 
13:15	28.2	28.2	28.2	62	16.9	0	2	90	0.00	30.125 
13:20	28.1	28.1	28.1	64	17.5	0	1	90	0.00	30.125 
13:25	28.1	28.1	28.1	64	17.5	0	2	90	0.00	30.125 
13:30	28.2	28.2	28.2	63	17.2	0	1	90	0.00	30.110 
13:35	28.4	28.4	28.4	62	17.1	0	2	90	0.00	30.110 
13:40	28.4	28.4	28.4	62	17.1	0	2	90	0.00	30.110 
13:45	28.5	28.5	28.5	62	17.2	0	1	90	0.00	30.107 
13:50	28.4	28.4	28.4	62	17.1	0	2	90	0.00	30.107 
13:55	28.4	28.4	28.4	62	17.1	1	2	90	0.00	30.107 
14:00	28.2	28.2	28.2	62	16.9	0	2	90	0.00	30.108 
14:05	28.2	28.2	28.2	62	16.9	0	2	90	0.00	30.108 
14:10	28.5	28.5	28.5	62	17.2	1	2	90	0.00	30.108 
14:15	28.7	28.7	28.7	62	17.4	1	4	248	0.00	30.120 
14:20	28.7	28.7	28.7	62	17.4	1	3	248	0.00	30.120 
14:25	28.8	28.8	28.8	62	17.4	1	3	338	0.00	30.120 
14:30	28.7	28.7	28.7	60	16.6	1	2	338	0.00	30.110 
14:35	28.5	28.5	28.5	60	16.4	1	3	292	0.00	30.110 
14:40	28.5	28.5	28.5	60	16.4	0	2	315	0.00	30.110 
14:45	28.4	28.4	28.4	60	16.3	1	3	315	0.00	30.119 
14:50	28.4	28.4	28.4	61	16.7	1	3	315	0.00	30.119 
14:55	27.9	27.9	27.9	61	16.2	1	3	315	0.00	30.119 
15:00	27.6	27.6	27.6	61	15.9	1	2	315	0.00	30.116 
15:05	27.6	27.6	27.6	62	16.3	0	2	315	0.00	30.116 
15:10	27.6	27.6	27.6	62	16.3	0	3	315	0.00	30.116 
15:15	27.3	27.3	27.3	61	15.7	1	2	315	0.00	30.114 
15:20	27.2	27.2	27.2	62	15.9	0	2	315	0.00	30.114 
15:25	27.3	27.3	27.3	62	16.0	0	2	315	0.00	30.114 
15:30	27.6	27.6	27.6	62	16.3	0	2	315	0.00	30.122 
15:35	28.1	28.1	28.1	60	16.0	1	3	315	0.00	30.122 
15:40	27.9	27.9	27.9	60	15.8	1	3	338	0.00	30.122 
15:45	27.8	27.8	27.8	60	15.7	0	2	338	0.00	30.119 
15:50	27.6	27.6	27.6	60	15.6	0	2	338	0.00	30.119 
15:55	27.5	27.5	27.5	61	15.8	0	2	338	0.00	30.119 
16:00	27.6	27.6	27.6	61	15.9	0	1	338	0.00	30.110 
16:05	27.8	27.8	27.8	61	16.1	0	1	338	0.00	30.110 
16:10	27.8	27.8	27.8	60	15.7	0	1	338	0.00	30.110 
16:15	27.9	27.9	27.9	59	15.5	1	3	338	0.00	30.117 
16:20	27.8	27.8	27.8	58	15.0	0	3	338	0.00	30.117 
16:25	27.8	27.8	27.8	58	15.0	0	2	338	0.00	30.117 
16:30	27.5	27.5	27.5	58	14.7	0	2	338	0.00	30.127 
16:35	27.3	27.3	27.3	58	14.5	0	1	338	0.00	30.127 
16:40	27.2	27.2	27.2	58	14.4	0	2	338	0.00	30.127 
16:45	26.9	26.9	26.9	58	14.1	0	2	338	0.00	30.129 
16:50	26.7	26.7	26.7	58	13.9	1	3	338	0.00	30.129 
16:55	26.6	26.6	26.6	58	13.8	0	2	338	0.00	30.129 
17:00	26.4	26.4	26.4	58	13.7	0	3	315	0.00	30.128 
17:05	26.3	26.3	26.3	58	13.6	0	1	315	0.00	30.128 
17:10	26.1	26.1	26.1	59	13.8	0	1	315	0.00	30.128 
17:15	26.0	26.0	26.0	59	13.7	0	1	315	0.00	30.128 
17:20	25.8	25.8	25.8	59	13.5	0	1	315	0.00	30.128 
17:25	25.6	25.6	25.6	60	13.7	0	0	---	0.00	30.128 
17:30	25.4	25.4	25.4	60	13.5	0	0	---	0.00	30.121 
17:35	25.1	25.1	25.1	60	13.2	0	0	---	0.00	30.121 
17:40	24.7	24.7	24.7	61	13.2	0	0	---	0.00	30.121 
17:45	24.2	24.2	24.2	61	12.7	0	0	---	0.00	30.130 
17:50	23.8	23.8	23.8	62	12.7	0	0	---	0.00	30.130 
17:55	23.2	23.2	23.2	62	12.1	0	0	---	0.00	30.130 
18:00	22.7	22.7	22.7	63	12.0	0	0	---	0.00	30.123 
18:05	22.1	22.1	22.1	64	11.8	0	0	---	0.00	30.123 
18:10	21.6	21.6	21.6	65	11.7	0	0	---	0.00	30.123 
18:15	21.3	21.3	21.3	67	12.1	0	0	---	0.00	30.134 
18:20	21.1	21.1	21.1	68	12.2	0	0	---	0.00	30.134 
18:25	21.0	21.0	21.0	70	12.8	0	0	---	0.00	30.134 
18:30	21.0	21.0	21.0	71	13.1	0	0	---	0.00	30.136 
18:35	20.8	20.8	20.8	72	13.2	0	0	---	0.00	30.136 
18:40	21.0	21.0	21.0	73	13.7	0	0	---	0.00	30.136 
18:45	21.1	21.1	21.1	73	13.8	0	0	---	0.00	30.136 
18:50	21.3	21.3	21.3	74	14.3	0	0	---	0.00	30.136 
18:55	21.4	21.4	21.4	74	14.4	0	0	---	0.00	30.136 
19:00	21.8	21.8	21.8	75	15.1	0	0	---	0.00	30.134 
19:05	22.1	22.1	22.1	75	15.4	0	0	---	0.00	30.134 
19:10	22.2	22.2	22.2	75	15.5	0	0	---	0.00	30.134 
19:15	22.2	22.2	22.2	74	15.2	0	0	---	0.00	30.135 
19:20	22.2	22.2	22.2	74	15.2	0	0	---	0.00	30.135 
19:25	22.2	22.2	22.2	74	15.2	0	0	---	0.00	30.135 
19:30	22.2	22.2	22.2	75	15.5	0	0	---	0.00	30.135 
19:35	22.2	22.2	22.2	75	15.5	0	0	---	0.00	30.135 
19:40	22.4	22.4	22.4	75	15.7	0	0	---	0.00	30.135 
19:45	22.4	22.4	22.4	75	15.7	0	0	---	0.00	30.145 
19:50	22.4	22.4	22.4	75	15.7	0	0	---	0.00	30.145 
19:55	22.4	22.4	22.4	76	16.0	0	0	---	0.00	30.145 
20:00	22.5	22.5	22.5	77	16.4	0	0	---	0.00	30.149 
20:05	22.5	22.5	22.5	77	16.4	0	0	---	0.00	30.149 
20:10	22.7	22.7	22.7	76	16.3	0	0	---	0.00	30.149 
20:15	22.9	22.9	22.9	76	16.5	0	0	---	0.00	30.150 
20:20	22.9	22.9	22.9	75	16.2	0	0	---	0.00	30.150 
20:25	22.9	22.9	22.9	75	16.2	0	0	---	0.00	30.150 
20:30	22.9	22.9	22.9	75	16.2	0	0	---	0.00	30.154 
20:35	23.0	23.0	23.0	75	16.3	0	1	315	0.00	30.154 
20:40	23.3	23.3	23.3	74	16.3	0	1	315	0.00	30.154 
20:45	23.6	23.6	23.6	73	16.2	0	1	315	0.00	30.153 
20:50	24.1	24.1	24.1	71	16.1	1	2	315	0.00	30.153 
20:55	24.2	24.2	24.2	70	15.9	0	1	315	0.00	30.153 
21:00	24.2	24.2	24.2	70	15.9	0	3	315	0.00	30.148 
21:05	24.1	24.1	24.1	70	15.8	1	4	270	0.00	30.148 
21:10	24.1	24.1	24.1	70	15.8	0	2	270	0.00	30.148 
21:15	23.9	23.9	23.9	70	15.6	0	2	270	0.00	30.150 
21:20	23.8	23.8	23.8	71	15.8	0	2	270	0.00	30.150 
21:25	23.6	23.6	23.6	71	15.6	0	2	270	0.00	30.150 
21:30	23.3	23.3	23.3	72	15.6	0	2	270	0.00	30.149 
21:35	23.2	23.2	23.2	73	15.9	0	2	270	0.00	30.149 
21:40	23.0	23.0	23.0	73	15.7	0	1	270	0.00	30.149 
21:45	22.9	22.9	22.9	73	15.6	0	0	---	0.00	30.151 
21:50	22.5	22.5	22.5	73	15.2	0	0	---	0.00	30.151 
21:55	22.2	22.2	22.2	74	15.2	0	0	---	0.00	30.151 
22:00	21.8	21.8	21.8	74	14.8	0	0	---	0.00	30.155 
22:05	21.4	21.4	21.4	75	14.7	0	0	---	0.00	30.155 
22:10	21.3	21.3	21.3	76	14.9	0	0	---	0.00	30.155 
22:15	21.1	21.1	21.1	76	14.7	0	1	270	0.00	30.148 
22:20	20.8	20.8	20.8	76	14.5	0	0	---	0.00	30.148 
22:25	20.5	20.5	20.5	76	14.2	0	0	---	0.00	30.148 
22:30	20.2	20.2	20.2	77	14.2	0	1	270	0.00	30.154 
22:35	20.0	20.0	20.0	77	14.0	0	0	---	0.00	30.154 
22:40	20.0	20.0	20.0	77	14.0	0	0	---	0.00	30.154 
22:45	19.9	19.9	19.9	78	14.2	0	0	---	0.00	30.152 
22:50	19.7	19.7	19.7	78	14.0	0	0	---	0.00	30.152 
22:55	19.4	19.4	19.4	78	13.7	0	0	---	0.00	30.152 
23:00	19.1	19.1	19.1	78	13.4	0	0	---	0.00	30.154 
23:05	18.9	18.9	18.9	78	13.2	0	0	---	0.00	30.154 
23:10	18.9	18.9	18.9	79	13.5	0	0	---	0.00	30.154 
23:15	18.9	18.9	18.9	80	13.8	0	1	270	0.00	30.163 
23:20	19.1	19.1	19.1	79	13.7	0	1	270	0.00	30.163 
23:25	19.1	19.1	19.1	79	13.7	0	1	270	0.00	30.163 
23:30	18.9	18.9	18.9	79	13.5	0	1	270	0.00	30.166 
23:35	18.8	18.8	18.8	79	13.4	0	1	270	0.00	30.166 
23:40	18.6	18.6	18.6	79	13.2	0	1	270	0.00	30.166 
23:45	18.4	18.4	18.4	78	12.7	0	0	---	0.00	30.167 
23:50	18.1	18.1	18.1	79	12.7	0	0	---	0.00	30.167 
23:55	18.0	18.0	18.0	79	12.6	0	0	---	0.00	30.167 

CoCoRaHS
IN-AL-39
A2 Web Hosting
Creative Commons License
GoDaddy
search engine by freefind advanced

loaded 2018-11-15 16:18:19 • last modified 2010-11-18 10:43:29
Privacy PolicyDisclaimer
• wx.awcolley.com is powered by PmWiki v.2002016 •
• all content (unless otherwise noted) © 2018 A W Colley